User: anonymous   Login
Location: Unspecified
(50.0959°N, 14.3921°E)
Time: 21:05:28
(UTC+02:00)
Language:

Chandra X-Ray Observatory - Orbit

View from above orbital plane
View from above orbital plane
View from above satellite
View from above satellite

Ground track
Ground track

The orbit data is extracted from the following two-line orbital elements,

1 25867U 99040B   21104.64077876  .00000800  00000-0  00000-0 0  9991
2 25867  56.6048 257.7260 8222983 226.2709   0.1798  0.37804407 10201
Epoch (UTC): 14 April 2021 15:22:43
Eccentricity: 0.8222983
inclination: 56.6048°
perigee height: 7979 km
apogee height: 140849 km
right ascension of ascending node: 257.7260°
argument of perigee: 226.2709°
revolutions per day: 0.37804407
mean anomaly at epoch: 0.1798°
orbit number at epoch: 1020

The dashed part of the orbit path shows where the satellite is in the earth's shadow,  

DLR